Change the Weather History Date:

Wednesday, February 27, 2013

  Actual Average (KCLT) Record (KCLT)
Temperature  
Mean Temperature 46 °F 47 °F  
Max Temperature 55 °F 58 °F 82 °F (2011)
Min Temperature 37 °F 35 °F 7 °F (1963)
Degree Days  
Heating Degree Days 19 18  
Month to date heating degree days 574  
Since 1 July heating degree days 2681  
Cooling Degree Days 0 0  
Month to date cooling degree days 0  
Year to date cooling degree days 0  
Moisture  
Dew Point 38 °F    
Average Humidity 74    
Maximum Humidity 100    
Minimum Humidity 53    
Precipitation  
Precipitation 0.00 in 0.13 in 1.70 in (1929)
Month to date precipitation 3.19  
Year to date precipitation 6.60  
Snow  
Snow 0.00 in 0.10 in 2.50 in (1924)
Month to date snowfall 1.2  
Since 1 July snowfall 3.7  
Snow Depth -    
Sea Level Pressure  
Sea Level Pressure 29.77 in    
Wind  
Wind Speed 10 mph (SW)    
Max Wind Speed 14 mph    
Max Gust Speed 18 mph    
Visibility 10 miles    
Events      
T = Trace of Precipitation, MM = Missing Value Source: NWS Daily Summary

Daily Weather History Graph

Daily Weather History Graph

Search for Another Location

Airport or City:

Trip Planner

Search our weather history database for the weather conditions in past years. The results will help you decide how hot, cold, wet, or windy it might be!

Date:

Astronomy

Feb. 27, 2013 Rise Set
Actual Time 6:54 AM EST 6:16 PM EST
Civil Twilight 6:28 AM EST 6:42 PM EST
Nautical Twilight 5:59 AM EST 7:11 PM EST
Astronomical Twilight 5:30 AM EST 7:40 PM EST
Moon 8:28 PM EST (2/27) 7:35 AM EST (2/27)
Length of Visible Light 12h 13m
Length of Day
11h 22m
Waning Gibbous, 96% of the Moon is Illuminated
Feb 27
Waning Gibbous
Mar 4
Last Quarter
Mar 11
New
Mar 19
First Quarter
Mar 27
Full

Hourly Weather History & Observations

Time (EST) Temp. Windchill Dew Point Humidity Pressure Visibility Wind Dir Wind Speed Gust Speed Precip Events Conditions
12:13 AM 42.8 °F 37.0 °F 42.8 °F 100% 29.67 in 10.0 mi SW 10.4 mph - N/A   Overcast
12:40 AM 42.8 °F 36.2 °F 41.0 °F 93% 29.68 in 10.0 mi SW 12.7 mph - N/A   Overcast
12:53 AM 42.1 °F 35.7 °F 41.0 °F 96% 29.73 in 10.0 mi WSW 11.5 mph - N/A   Overcast
1:37 AM 42.8 °F 36.2 °F 39.2 °F 87% 29.67 in 10.0 mi SW 12.7 mph - N/A   Partly Cloudy
1:53 AM 42.1 °F 35.2 °F 39.9 °F 92% 29.71 in 10.0 mi SW 12.7 mph 18.4 mph N/A   Clear
2:53 AM 41.0 °F 33.5 °F 37.9 °F 89% 29.70 in 10.0 mi SW 13.8 mph - N/A   Clear
3:53 AM 41.0 °F 34.7 °F 37.0 °F 86% 29.71 in 10.0 mi WSW 10.4 mph - N/A   Clear
4:53 AM 39.9 °F 33.4 °F 37.0 °F 89% 29.74 in 10.0 mi WSW 10.4 mph - N/A   Clear
5:53 AM 37.9 °F 32.7 °F 36.0 °F 93% 29.77 in 10.0 mi WSW 6.9 mph - N/A   Clear
6:53 AM 37.0 °F 32.4 °F 35.1 °F 93% 29.79 in 10.0 mi SW 5.8 mph - N/A   Clear
7:53 AM 39.0 °F 35.7 °F 37.0 °F 93% 29.82 in 10.0 mi WSW 4.6 mph - N/A   Clear
8:53 AM 43.0 °F 37.2 °F 37.0 °F 80% 29.85 in 10.0 mi West 10.4 mph - N/A   Clear
9:53 AM 46.9 °F - 37.9 °F 71% 29.86 in 10.0 mi West 9.2 mph - N/A   Clear
10:53 AM 48.9 °F - 37.0 °F 64% 29.85 in 10.0 mi West 5.8 mph - N/A   Clear
11:53 AM 51.1 °F - 37.0 °F 59% 29.85 in 10.0 mi SSW 5.8 mph - N/A   Clear
12:53 PM 52.0 °F - 37.0 °F 57% 29.83 in 10.0 mi West 11.5 mph - N/A   Partly Cloudy
1:53 PM 54.0 °F - 37.9 °F 55% 29.81 in 10.0 mi WSW 9.2 mph 18.4 mph N/A   Clear
2:53 PM 54.0 °F - 37.9 °F 55% 29.80 in 10.0 mi WSW 11.5 mph - N/A   Clear
3:53 PM 55.9 °F - 39.0 °F 53% 29.79 in 10.0 mi SW 11.5 mph - N/A   Clear
4:53 PM 55.0 °F - 37.9 °F 53% 29.78 in 10.0 mi SSW 10.4 mph 18.4 mph N/A   Clear
5:53 PM 53.1 °F - 37.9 °F 57% 29.79 in 10.0 mi SW 8.1 mph - N/A   Clear
6:53 PM 50.0 °F - 37.0 °F 61% 29.80 in 10.0 mi SW 4.6 mph - N/A   Clear
7:53 PM 46.9 °F - 37.0 °F 68% 29.80 in 10.0 mi SW 5.8 mph - N/A   Clear
8:53 PM 46.0 °F 41.9 °F 37.0 °F 71% 29.79 in 10.0 mi SW 8.1 mph - N/A   Clear
9:53 PM 46.0 °F 41.4 °F 35.1 °F 66% 29.78 in 10.0 mi WSW 9.2 mph - N/A   Clear
10:53 PM 46.0 °F 40.6 °F 34.0 °F 63% 29.78 in 10.0 mi WSW 11.5 mph - N/A   Clear
11:53 PM 46.9 °F - 34.0 °F 61% 29.77 in 10.0 mi WSW 10.4 mph - N/A   Clear